Location: Newark
(41.7563°N, 42.8282°E)
Time: 14:21:21
(UTC+00:00)

N. Korean satellite - Visible Passes

Search period start: 19 October 2019 00:00
Search period end: 29 October 2019 00:00
Orbit: 455 x 508 km, 97.2° (Epoch: 18 October)

Date Brightness Start Highest point End Pass type
(mag) Time Alt. Az. Time Alt. Az. Time Alt. Az.
19 Oct 10.1 02:08:10 10° NE 02:10:22 15° E 02:12:35 10° SE visible
20 Oct 10.4 15:26:43 10° WSW 15:27:41 11° W 15:28:40 10° WNW visible
21 Oct 7.6 02:49:47 10° NNE 02:53:21 52° E 02:56:56 10° S visible
21 Oct 9.4 14:59:26 10° SSW 15:02:12 22° W 15:04:59 10° NW visible
22 Oct 9.3 02:24:55 10° NE 02:27:59 25° E 02:31:02 10° SSE visible
23 Oct 10.3 02:00:51 10° ENE 02:02:30 13° E 02:04:09 10° ESE visible
24 Oct 10.1 15:17:56 10° SW 15:19:46 14° W 15:21:38 10° WNW visible
25 Oct 8.1 02:42:01 10° NNE 02:45:30 41° E 02:49:01 10° S visible
25 Oct 8.9 14:51:17 10° SSW 14:54:17 28° W 14:57:20 10° NW visible
26 Oct 9.6 02:17:17 10° NE 02:20:05 20° E 02:22:54 10° SE visible
27 Oct 10.6 01:54:06 10° E 01:54:34 10° E 01:55:04 10° E visible
28 Oct 7.0 02:59:17 10° NNE 03:02:58 73° E 03:06:40 10° S visible
28 Oct 9.9 15:09:27 10° SW 15:11:48 17° W 15:14:12 10° NW visible
